Home   Weather   Oer-Erkenschwick   Past weeks

Flag for Germany Past Weather in Oer-Erkenschwick, North Rhine-Westphalia, Germany — Yesterday and Last 2 Weeks

Now
34 °F

Scattered clouds.


Feels Like: 27 °F
Forecast: 35 / 50 °F
Wind: 8 mph from South

Location: Dortmund / Wickede

Current Time: Apr 26, 2017 at 8:09:29 am

Latest Report: Apr 26, 2017 at 7:20 am


Visibility: N/A

Pressure: 29.83 "Hg

Humidity: 81%

Dew Point: 28 °F

Location of Oer-ErkenschwickLocation

Past Weather in Oer-Erkenschwick — Graph

°F

Oer-Erkenschwick Temperature Yesterday

Maximum temperature yesterday: 48 °F (at 4:20 pm)
Minimum temperature yesterday: 39 °F (at 5:20 am)
Average temperature yesterday: 43 °F

High & Low Weather Summary for the Past Weeks

 TemperatureHumidityPressure
High57 °F (Apr 24, 2:50 pm)93% (Apr 14, 6:50 am)30.60 "Hg (Apr 14, 6:50 am)
Low25 °F (Apr 20, 5:20 am)28% (Apr 20, 3:20 pm)29.68 "Hg (Apr 25, 5:20 am)
Average44 °F65%30.13 "Hg
* Reported Apr 11 9:50 am — Apr 26 6:50 am, Oer-Erkenschwick, Weather by CustomWeather, © 2017

Note: Actual official high and low records may vary slightly from our data, if they occured in-between our weather recording intervals... More about our weather records

Advertising

Oer-Erkenschwick Weather History for the Previous 24 Hours

Scroll right to see more
 ConditionsComfort  
Time TempWeatherWind HumidityBarometerVisibility
6:50 am
Wed, Apr 26
32 °FSunny.9 mph87%29.83 "Hg10 mi
6:20 am32 °FSunny.8 mph87%29.83 "Hg10 mi
5:50 am32 °FClear.8 mph87%29.83 "Hg10 mi
5:20 am32 °FClear.8 mph87%29.83 "Hg10 mi
9:50 pm
Tue, Apr 25
41 °FClear.12 mph57%29.83 "Hg10 mi
8:50 pm41 °FClear.3 mph61%29.80 "Hg10 mi
8:20 pm43 °FSunny.7 mph57%29.80 "Hg10 mi
7:50 pm43 °FSunny.9 mph53%29.80 "Hg10 mi
7:20 pm45 °FPassing clouds.10 mph53%29.80 "HgN/A
6:50 pm46 °FPassing clouds.12 mph46%29.80 "HgN/A
6:20 pm45 °FScattered clouds.12 mph53%29.77 "HgN/A
5:50 pm45 °FScattered clouds.9 mph53%29.77 "HgN/A
5:20 pm46 °FScattered clouds.13 mph50%29.77 "HgN/A
4:50 pm45 °FScattered clouds.15 mph53%29.77 "HgN/A
4:20 pm48 °FScattered clouds.9 mph54%29.77 "HgN/A
3:50 pm45 °FScattered clouds.8 mph66%29.77 "HgN/A
3:20 pm45 °FScattered clouds.10 mph66%29.77 "HgN/A
2:50 pm39 °FScattered clouds.14 mph81%29.77 "HgN/A
2:20 pm39 °FSprinkles. Broken clouds.24 mph75%29.77 "HgN/A
1:50 pm45 °FScattered clouds.13 mph66%29.74 "HgN/A
1:20 pm43 °FSprinkles. Partly sunny.17 mph57%29.74 "HgN/A
12:50 pm46 °FPartly sunny.17 mph46%29.74 "HgN/A
12:20 pm45 °FPartly sunny.17 mph49%29.74 "HgN/A
11:50 am45 °FPartly sunny.16 mph53%29.74 "HgN/A
11:20 am45 °FScattered clouds.18 mph53%29.71 "HgN/A
10:50 am45 °FPartly sunny.17 mph57%29.71 "HgN/A
10:28 am41 °FScattered clouds.17 mph57%29.71 "HgN/A
9:50 am41 °FScattered showers. Scattered clouds.16 mph66%29.71 "HgN/A
8:50 am41 °FPartly sunny.12 mph81%29.71 "HgN/A
8:20 am41 °FBroken clouds.10 mph87%29.68 "HgN/A
Weather by CustomWeather, © 2017

See weather overviewHow to use our weather pages